Zurück zum Katalog

STARLINK-37275

AktivKommunikationVLEO
NORAD 68725·PAYLOAD·🇺🇸 United States

Gestartet Apr 14, 2026 von Cape Canaveral Space Force Station

Loading…

Nächste Überflüge (nächste 24 Stunden)

TLE

AktuellSource: CelesTrak SupGP

Epoche: Sep 15, 2026, 04:35 UTC

1 68725C 26081AC  26258.19145833 -.00060572  00000+0 -17898-2 0  2586
2 68725  53.1575 230.2679 0001419  91.0294  44.2619 15.34416453    18

Verfolge STARLINK-37275 in Echtzeit mit AllMySat

Download on the App Store